Wind_Speed
14 13 12 13 13 14 15 16 18 20 21 22 23 23 24 25 26 26 27 29 30 31 32 33 35 36 37 38 39 40 41 41 41 42 42 42 42 42 42 42 42 41 40
18 18 17 16 17 17 18 19 20 22 24 25 27 28 29 30 31 32 33 34 35 36 37 38 38 39 40 41 42 43 44 46 46 46 47 47 47 47 47 47 47 46 46
23 22 22 21 21 22 22 22 22 24 26 27 29 31 33 34 36 37 38 38 39 40 40 41 41 42 43 44 45 46 47 48 48 49 49 50 50 50 50 50 50 50 49
29 27 27 26 25 25 25 25 25 26 27 29 31 33 35 36 38 40 41 41 42 42 43 44 44 45 46 47 47 48 49 50 50 51 51 51 51 51 50 50 50 50 50
34 32 31 30 29 29 28 28 28 28 29 31 33 35 36 37 39 40 41 43 44 45 46 46 47 48 48 49 50 51 52 52 53 53 53 53 53 53 53 52 52 51 51
35 34 33 32 30 30 30 29 29 29 31 33 35 36 38 39 40 41 42 44 46 47 48 49 50 51 52 52 53 54 55 56 56 57 57 56 56 55 55 55 53 52 52
32 32 32 31 29 28 28 28 28 30 32 34 36 37 39 40 42 43 44 46 48 49 51 52 53 53 54 55 56 58 58 59 59 59 58 57 57 57 56 56 55 55 54
29 29 30 30 28 28 29 30 31 32 34 35 38 40 41 42 43 45 47 49 51 52 54 55 56 57 59 60 61 62 62 61 61 60 59 58 58 58 58 58 58 58 57
27 28 28 30 30 30 31 32 34 36 37 38 40 42 43 43 45 47 49 52 54 56 58 59 60 62 63 64 65 65 64 64 63 62 61 61 62 62 62 62 61 61 61
26 26 28 29 31 32 34 36 38 39 41 42 43 45 46 47 49 50 52 54 57 59 61 63 64 66 67 68 68 68 68 67 67 67 67 67 67 67 67 67 66 65 64
27 28 29 32 34 37 39 41 42 44 46 47 48 49 51 52 54 55 55 57 60 62 65 66 68 69 70 70 70 70 70 70 71 71 71 71 72 71 71 71 70 69 67
29 31 33 35 38 41 43 45 47 49 50 52 53 54 56 57 58 59 60 61 62 64 66 68 69 70 71 71 71 72 72 73 73 74 74 74 75 74 74 74 73 71 70
33 35 37 40 43 45 47 50 52 53 54 56 57 59 61 62 63 64 65 65 64 63 64 67 69 71 72 72 72 73 73 74 75 76 76 77 77 77 76 76 75 73 71
39 40 43 45 48 50 52 54 56 57 59 60 62 63 65 65 66 66 65 65 63 63 64 66 68 70 72 72 72 74 75 76 76 77 77 77 77 77 76 76 75 74 72
44 46 48 51 53 55 57 58 60 61 63 64 65 66 66 65 65 64 64 65 65 63 62 64 66 69 71 72 73 74 74 74 74 74 73 72 72 71 71 70 70 70 70
48 50 52 55 56 58 59 61 63 64 66 66 66 66 64 63 63 63 63 64 64 63 61 62 66 68 70 71 71 69 68 66 65 64 63 62 61 61 60 61 62 63 64
53 54 56 58 59 60 61 63 64 65 65 65 64 63 62 62 61 61 61 62 63 64 63 62 64 66 66 65 63 61 58 56 54 52 50 49 48 48 49 49 50 52 54
56 57 58 59 60 61 62 63 64 64 63 62 61 61 60 60 60 60 61 61 62 63 62 62 60 59 58 55 53 50 47 45 42 40 39 38 38 39 39 40 41 42 44
58 58 59 60 61 61 62 62 62 61 60 59 58 58 58 58 59 59 60 60 60 61 60 58 54 51 48 45 43 41 39 36 33 31 30 31 32 32 33 34 35 35 36
58 59 60 60 60 60 60 60 59 58 57 56 56 56 57 57 58 58 58 57 57 56 53 49 45 41 39 37 36 33 31 30 29 27 26 26 27 28 29 30 31 32 32
58 58 58 58 58 58 57 57 56 55 55 55 55 56 56 56 56 55 55 54 51 48 43 39 35 33 31 30 29 28 27 27 27 26 24 24 24 24 25 26 27 27 28
56 56 55 55 55 54 54 53 53 53 54 54 54 54 54 54 53 52 50 47 43 38 33 29 28 28 27 27 27 27 26 25 25 25 24 23 22 21 22 22 22 23 24
53 52 52 52 52 52 52 52 52 52 51 51 51 51 51 50 47 44 40 37 34 29 26 25 25 25 26 27 27 27 26 25 24 24 22 21 21 20 19 19 19 18 19
49 49 49 49 49 49 49 49 48 49 49 48 47 46 44 41 37 34 31 28 25 24 23 23 24 26 27 27 27 26 25 24 23 23 21 20 20 19 17 16 15 16 16
46 46 46 46 46 46 46 47 46 46 45 43 42 39 35 31 28 24 21 20 19 20 21 23 25 26 26 26 25 23 21 20 20 19 18 17 16 16 15 13 12 12 12
43 43 43 44 44 44 44 43 41 40 38 37 34 31 26 22 19 16 15 15 16 18 21 23 24 25 24 23 21 19 18 17 16 15 15 14 13 12 12 11 10 9 9
Wind_Direction
285 283 285 286 288 290 294 296 294 293 291 289 287 285 283 281 280 281 281 281 282 282 283 283 283 284 284 284 284 284 284 283 283 282 281 279 278 277 276 275 275 274 274
285 282 281 283 284 286 289 292 292 292 291 290 289 288 287 285 284 282 281 281 281 281 281 282 282 283 283 283 283 283 282 282 281 281 280 279 277 276 275 274 274 273 272
284 280 278 279 280 281 283 285 287 289 290 290 288 286 284 282 281 280 279 279 280 281 281 282 282 283 283 283 283 283 283 282 281 280 279 278 277 276 274 273 272 272 271
280 275 274 274 275 276 278 280 282 285 287 289 288 286 284 282 281 280 280 281 281 282 283 283 283 283 283 283 283 283 283 283 282 281 280 278 277 275 274 272 271 270 269
277 273 270 271 272 274 276 278 280 283 286 288 288 288 288 286 284 283 282 282 282 283 283 284 284 284 283 283 283 283 283 283 283 282 281 279 277 275 274 272 271 270 268
275 271 269 270 273 275 278 278 282 285 287 289 290 291 289 288 287 285 284 283 283 282 282 282 283 284 284 284 284 283 283 283 283 282 281 279 277 276 274 273 272 270 268
273 273 269 271 275 279 283 286 289 291 292 292 293 293 292 290 287 286 285 284 283 283 282 283 283 283 284 284 284 284 284 284 283 282 280 279 277 275 274 272 270 269 267
278 279 278 280 282 290 298 300 300 299 297 296 296 294 293 291 288 287 286 285 284 283 283 284 284 284 284 285 285 284 284 283 282 281 279 278 276 274 273 271 270 268 267
288 284 285 290 292 300 303 302 304 303 301 299 298 295 294 292 290 289 287 286 285 285 285 285 285 285 285 285 284 284 283 282 280 279 278 277 275 274 272 271 269 267 266
302 295 297 298 300 303 305 305 305 303 302 300 298 296 295 294 293 291 289 288 287 287 287 287 286 286 285 285 284 283 281 280 278 277 276 275 274 273 271 269 268 267 265
305 303 300 302 304 305 305 305 304 303 302 301 299 298 297 296 294 293 291 290 289 288 288 287 287 286 285 284 283 282 280 278 277 276 275 274 273 271 270 268 267 266 264
307 306 305 306 306 305 305 304 303 302 302 300 299 299 298 297 295 294 293 291 290 289 288 288 287 286 285 284 283 281 280 279 277 275 275 274 272 271 269 268 266 265 263
305 305 305 305 305 304 303 302 301 301 300 299 298 298 297 296 295 294 293 292 290 289 289 288 288 287 286 285 284 283 282 280 279 277 276 274 273 272 270 269 267 265 262
304 304 303 304 303 302 300 300 299 298 297 297 296 296 296 295 295 294 294 292 291 290 288 287 287 287 287 286 286 285 284 283 282 280 279 277 275 273 271 269 267 264 261
303 303 302 302 301 299 298 297 296 295 295 296 296 296 296 296 296 295 294 293 292 291 290 288 287 287 288 288 288 288 287 286 284 283 280 278 276 274 271 269 266 263 260
302 301 300 299 298 296 295 294 294 294 295 295 296 296 296 296 296 295 295 294 294 293 292 291 290 289 289 290 290 290 290 288 286 284 281 278 275 273 270 268 265 261 258
301 300 299 297 296 295 294 293 294 294 295 296 296 296 296 296 296 296 296 296 296 295 295 294 293 293 293 292 293 293 292 291 289 286 283 279 276 273 270 268 265 261 258
300 299 298 297 295 294 294 293 294 294 295 295 296 296 296 296 297 297 298 297 297 297 297 297 296 295 295 295 295 295 295 295 292 288 285 281 278 275 273 270 267 263 259
299 298 297 296 295 294 294 294 295 295 296 296 297 297 298 298 298 298 298 298 298 298 299 299 299 298 297 296 297 297 297 296 295 292 288 284 281 278 275 271 267 264 261
298 297 296 295 295 295 295 295 295 296 297 297 298 299 299 299 298 298 299 299 300 300 301 302 301 300 299 300 300 300 299 298 297 295 292 288 284 281 278 274 270 266 262
296 296 295 295 295 295 295 296 297 297 298 299 299 299 299 299 299 299 300 300 301 302 302 302 302 301 303 303 304 304 303 301 299 298 296 292 288 284 279 276 272 267 261
295 295 295 295 295 296 296 297 297 298 299 299 299 299 300 300 301 301 302 303 304 304 304 304 304 305 306 306 307 307 305 303 300 299 298 295 291 287 283 279 275 269 262
295 295 295 295 296 296 297 297 298 298 299 299 299 299 300 302 303 304 304 305 306 308 309 309 310 311 311 310 309 309 307 304 301 297 295 294 293 291 288 282 276 270 264
295 295 295 296 297 297 298 298 298 298 298 299 300 301 302 304 305 305 305 306 309 312 313 314 316 317 317 316 313 311 308 306 302 299 297 292 290 291 291 286 279 272 264
295 295 296 296 297 297 297 297 298 298 299 300 302 303 305 306 305 304 306 309 312 315 318 320 321 322 322 320 319 317 314 312 308 304 301 296 290 288 287 286 284 275 264
296 296 296 296 297 297 297 298 299 300 301 303 304 306 307 306 305 307 311 316 319 322 325 327 327 328 328 328 329 329 328 327 324 317 310 306 298 290 286 285 282 278 266
Height
5862 5860 5859 5858 5857 5855 5854 5853 5852 5851 5851 5850 5849 5849 5849 5848 5847 5847 5846 5846 5845 5845 5844 5843 5842 5841 5840 5839 5838 5837 5836 5834 5834 5833 5832 5832 5831 5831 5831 5831 5832 5832 5833
5858 5856 5855 5854 5852 5851 5850 5849 5848 5847 5845 5844 5844 5843 5842 5841 5840 5840 5839 5838 5837 5837 5836 5835 5833 5832 5831 5830 5828 5827 5826 5825 5824 5822 5822 5821 5821 5820 5820 5821 5821 5822 5823
5852 5851 5850 5848 5847 5846 5845 5844 5842 5841 5840 5839 5838 5837 5835 5834 5834 5833 5832 5831 5829 5828 5826 5825 5823 5822 5820 5819 5817 5816 5814 5813 5812 5811 5810 5809 5808 5808 5808 5809 5809 5810 5811
5845 5843 5842 5841 5840 5839 5838 5837 5836 5835 5834 5833 5832 5830 5828 5827 5825 5824 5823 5822 5820 5818 5815 5813 5812 5810 5808 5807 5805 5804 5802 5801 5799 5798 5797 5796 5795 5795 5795 5795 5796 5797 5798
5836 5835 5833 5832 5832 5832 5831 5831 5830 5829 5828 5826 5824 5822 5820 5818 5816 5815 5813 5811 5809 5807 5804 5802 5800 5798 5796 5794 5793 5791 5789 5787 5786 5785 5783 5782 5782 5781 5781 5781 5782 5783 5784
5827 5825 5825 5824 5824 5825 5824 5823 5822 5821 5820 5819 5816 5814 5812 5809 5807 5805 5803 5801 5799 5796 5793 5791 5788 5786 5784 5782 5779 5777 5775 5773 5772 5770 5769 5767 5767 5766 5766 5766 5767 5768 5769
5818 5817 5817 5817 5817 5817 5817 5815 5814 5813 5812 5810 5808 5805 5803 5800 5797 5795 5792 5790 5787 5784 5781 5779 5776 5773 5770 5768 5765 5763 5760 5758 5756 5754 5753 5751 5751 5750 5750 5750 5751 5752 5753
5812 5811 5811 5811 5810 5809 5808 5807 5806 5804 5803 5801 5798 5796 5793 5791 5788 5785 5782 5778 5775 5771 5768 5765 5762 5759 5756 5753 5750 5747 5744 5742 5740 5738 5736 5735 5734 5733 5733 5733 5734 5735 5736
5806 5805 5804 5803 5802 5801 5800 5798 5797 5796 5793 5791 5789 5786 5783 5780 5777 5774 5770 5766 5762 5758 5754 5751 5747 5743 5739 5736 5733 5730 5727 5725 5722 5720 5718 5717 5716 5715 5715 5715 5716 5717 5719
5799 5798 5796 5795 5794 5793 5791 5790 5788 5786 5783 5781 5778 5775 5772 5768 5765 5762 5758 5753 5748 5743 5739 5735 5730 5726 5721 5718 5714 5711 5708 5706 5703 5701 5699 5698 5697 5696 5696 5696 5696 5698 5699
5793 5792 5790 5788 5787 5785 5783 5780 5778 5775 5772 5769 5766 5762 5759 5755 5751 5748 5745 5740 5734 5728 5723 5718 5712 5707 5702 5698 5694 5691 5688 5685 5683 5681 5678 5677 5675 5675 5674 5675 5676 5677 5679
5786 5785 5783 5781 5778 5776 5773 5770 5767 5763 5760 5756 5753 5749 5745 5741 5736 5732 5729 5725 5721 5714 5706 5699 5693 5687 5681 5676 5673 5669 5666 5663 5660 5658 5655 5653 5652 5651 5651 5652 5653 5654 5656
5780 5778 5775 5772 5769 5766 5763 5759 5755 5752 5748 5744 5739 5735 5730 5725 5720 5716 5712 5707 5703 5699 5691 5682 5672 5665 5659 5654 5651 5646 5643 5639 5636 5633 5631 5629 5627 5626 5626 5627 5628 5630 5632
5771 5769 5766 5762 5759 5755 5751 5747 5743 5739 5735 5730 5725 5720 5715 5709 5703 5698 5693 5688 5685 5682 5676 5667 5656 5645 5638 5633 5628 5624 5619 5615 5611 5608 5605 5603 5601 5600 5600 5600 5602 5604 5607
5762 5758 5755 5751 5747 5743 5739 5735 5730 5725 5720 5715 5710 5704 5699 5692 5686 5680 5674 5669 5665 5663 5659 5650 5639 5629 5620 5614 5607 5602 5597 5592 5587 5582 5579 5577 5575 5574 5573 5574 5575 5577 5580
5750 5747 5743 5739 5735 5730 5726 5721 5716 5710 5705 5700 5694 5688 5682 5676 5670 5663 5657 5650 5644 5640 5638 5631 5621 5612 5603 5595 5588 5582 5576 5570 5564 5559 5556 5553 5551 5550 5550 5550 5551 5553 5556
5738 5734 5730 5725 5721 5716 5711 5706 5700 5695 5689 5684 5678 5672 5666 5660 5654 5647 5640 5633 5626 5620 5617 5612 5602 5593 5584 5577 5570 5563 5557 5551 5546 5541 5537 5534 5533 5532 5531 5531 5531 5533 5535
5724 5720 5715 5711 5706 5700 5695 5690 5685 5679 5674 5668 5663 5657 5651 5644 5638 5631 5624 5617 5609 5602 5597 5594 5586 5576 5568 5560 5555 5549 5542 5536 5531 5527 5523 5521 5519 5518 5517 5517 5517 5518 5519
5710 5705 5700 5695 5690 5685 5680 5674 5669 5664 5659 5653 5648 5642 5635 5629 5623 5616 5609 5602 5595 5587 5580 5575 5569 5561 5554 5547 5542 5536 5530 5525 5520 5516 5513 5511 5509 5507 5506 5505 5505 5506 5507
5695 5690 5685 5680 5675 5669 5664 5659 5654 5649 5644 5639 5633 5627 5621 5615 5609 5602 5595 5588 5581 5574 5567 5561 5555 5549 5543 5536 5531 5526 5522 5517 5512 5509 5506 5503 5500 5499 5497 5496 5496 5496 5497
5681 5676 5670 5665 5660 5655 5650 5645 5640 5635 5630 5625 5619 5613 5607 5601 5595 5588 5582 5575 5568 5562 5556 5550 5545 5539 5534 5528 5523 5519 5514 5510 5506 5502 5499 5496 5493 5491 5489 5488 5487 5487 5487
5666 5661 5656 5651 5646 5641 5636 5632 5627 5622 5617 5612 5606 5599 5593 5588 5582 5576 5569 5563 5557 5552 5547 5542 5537 5532 5527 5522 5517 5512 5508 5504 5500 5496 5493 5490 5486 5485 5482 5481 5480 5479 5479
5652 5647 5642 5637 5633 5628 5624 5619 5615 5610 5605 5600 5594 5588 5582 5576 5571 5565 5559 5553 5548 5543 5539 5535 5531 5526 5521 5517 5512 5507 5502 5497 5493 5490 5487 5484 5481 5479 5477 5475 5474 5474 5473
5639 5635 5630 5626 5621 5617 5612 5607 5602 5598 5593 5588 5583 5578 5572 5567 5562 5557 5552 5548 5543 5539 5535 5530 5526 5521 5516 5510 5505 5500 5495 5491 5487 5483 5480 5478 5475 5474 5472 5470 5469 5469 5469
5627 5623 5618 5614 5610 5605 5601 5596 5591 5586 5582 5577 5573 5568 5564 5559 5555 5551 5547 5544 5540 5536 5531 5527 5522 5516 5511 5505 5499 5494 5490 5485 5482 5478 5475 5473 5471 5469 5468 5467 5466 5465 5465
5616 5612 5608 5603 5599 5594 5590 5585 5581 5576 5572 5568 5564 5560 5557 5553 5550 5547 5544 5541 5537 5534 5529 5524 5518 5512 5506 5501 5495 5490 5486 5482 5477 5474 5471 5468 5466 5465 5464 5463 5463 5462 5462